Kosmos-2580

operational
NORAD ID: 62216 Int'l Des: 2024-230 Owner: VVKOV Country: RU
LEOCIRCULAR

Über Kosmos-2580

Beschreibung wird geladen...

Live-Position

3D-Globus wird geladen...

Nächste Überflüge

Höhenverlauf

Altitude vs Time

uPlot chart will show altitude changes over time

Zweizeiliger Elementsatz

1 62216U 24230A 25213.57003312 -.00000047 00000-0 20619-4 0 9996
2 62216 67.1469 107.6942 0005572 271.9919 88.0528 13.96670460 33502
Epoch: 1. Aug. 2025 • Age: 3080 hours

Aktueller Status

Höhe 905.0 km
Geschwindigkeit 7.40 km/s
Subsatellitenpunkt 31.85°N, 88.63°W
Startdatum 4. Dez. 2024
Alter 1 years
Typ other

Technische Details

Klassifizierung Payload
Masse 6575.00 kg
Trockenmasse 6500.00 kg
Gesamtmasse 6575.00 kg
Länge 6.30 m
Durchmesser 2.70 m
Spannweite 6.30 m
Form Cyl + 2 Pan
Hersteller TSSKBP/ARSLO
Bus-Typ Yantar'-Lotos
Phasenstatus In Orbit
Besitzer/Staat VVKOV/RU

Große Konstellationen

Loading constellations...